(466075) = 2011 YM34

Discovered at Kitt Peak on 2010-08-13 by Spacewatch.

Orbit

Orbit type: Main Belt

Note: WebGL enabled browser required.

epoch2023-02-25.0
epoch JD2460000.5
perihelion date2019-11-27.65944
perihelion JD2458815.15944
argument of perihelion (°)263.99554
ascending node (°)308.32135
inclination (°)6.53071
eccentricity0.0640834
perihelion distance (AU)2.1529957
Tisserand w.r.t. Jupiter3.6
ΔV w.r.t. Earth (km/sec)9.3
semimajor axis (AU)2.3004140
mean anomaly (°)334.84050
mean daily motion (°/day)0.28248460
aphelion distance (AU)2.448
period (years)3.49
P-vector [x]-0.84004127
P-vector [y]-0.44182277
P-vector [z]-0.31483854
Q-vector [x]0.53513412
Q-vector [y]-0.77024928
Q-vector [z]-0.34691140
absolute magnitude18.04
phase slope0.15
uncertainty0
referenceMPO 745323
observations used180
oppositions8
arc length (days)4667
first opposition used2010
last opposition used2023
residual rms (arc-secs)0.78
perturbers coarse indicatorM-v
perturbers precise indicator003Ek
first observation date used2010-08-13.0
last observation date used2023-05-24.0
computer nameMPCLINUX
Minimum Orbit Intersection Distances (in AU)
for orbit epoch: 2460000.5, reference: E2023-KE2
Mercury1.70591
Venus1.44288
Earth1.15902
Mars0.56192
Jupiter2.54887
Saturn6.69033
Uranus16.2441
Neptune27.4313

Observations

184 total observations over interval: 2010 08 13.28289 – 2023 05 24.314666
These data are available for download (format description).

Date (UT) J2000 RA J2000 Dec Magn Location Ref
2010 08 13.28289 23 24 27.18 +02 08 30.0   691 – Steward Observatory, Kitt Peak-Spacewatch MPS 431348
2010 08 13.30049 23 24 26.43 +02 08 29.9   691 – Steward Observatory, Kitt Peak-Spacewatch MPS 431348
2010 08 13.31809 23 24 25.69 +02 08 29.3   691 – Steward Observatory, Kitt Peak-Spacewatch MPS 431348
2010 09 04.42810 23 05 00.18 +01 26 39.2 21.2 R I41 – Palomar Mountain--ZTF MPS 1550203
2010 09 04.47125 23 04 57.51 +01 26 30.6 21.4 R I41 – Palomar Mountain--ZTF MPS 1550203
2010 10 13.21148 22 34 39.57 -01 00 56.3 21.1 V G96 – Mt. Lemmon Survey MPS 431348
2010 10 13.21830 22 34 39.36 -01 00 57.0 20.9 V G96 – Mt. Lemmon Survey MPS 431348
2010 10 13.22520 22 34 39.21 -01 00 58.2 21.1 V G96 – Mt. Lemmon Survey MPS 431348
2010 10 13.23213 22 34 39.07 -01 00 59.0 21.4 V G96 – Mt. Lemmon Survey MPS 431348
2011 12 26.34878 08 03 04.25 +24 19 14.8 21.0 V 691 – Steward Observatory, Kitt Peak-Spacewatch MPS 406051
2011 12 26.36682 08 03 03.24 +24 19 15.5 21.4 V 691 – Steward Observatory, Kitt Peak-Spacewatch MPS 406051
2011 12 26.38489 08 03 02.15 +24 19 16.1 21.4 V 691 – Steward Observatory, Kitt Peak-Spacewatch MPS 406051
2011 12 30.31890 07 59 15.77 +24 21 06.8 21.1 V 691 – Steward Observatory, Kitt Peak-Spacewatch MPS 406051
2011 12 30.33667 07 59 14.66 +24 21 07.7 20.8 V 691 – Steward Observatory, Kitt Peak-Spacewatch MPS 406051
2011 12 30.35443 07 59 13.53 +24 21 07.8 21.1 V 691 – Steward Observatory, Kitt Peak-Spacewatch MPS 406051
2012 01 03.34916 07 55 00.50 +24 22 42.2 21.0 V 691 – Steward Observatory, Kitt Peak-Spacewatch MPS 406051
2012 01 03.36702 07 54 59.25 +24 22 42.2 21.0 V 691 – Steward Observatory, Kitt Peak-Spacewatch MPS 406051
2012 01 03.38481 07 54 58.09 +24 22 42.2 20.8 V 691 – Steward Observatory, Kitt Peak-Spacewatch MPS 406051
2012 01 18.19162 07 37 28.70 +24 21 29.3 20.8 V G96 – Mt. Lemmon Survey MPS 407816
2012 01 18.19682 07 37 28.30 +24 21 29.4 20.7 V G96 – Mt. Lemmon Survey MPS 407816
2012 01 18.20212 07 37 27.91 +24 21 29.0 20.7 V G96 – Mt. Lemmon Survey MPS 407816
2012 01 18.20726 07 37 27.48 +24 21 28.5 20.0 V G96 – Mt. Lemmon Survey MPS 407816
2014 10 28.42301 03 14 42.85 +29 03 39.3 21.6 V G96 – Mt. Lemmon Survey MPS 542333
2014 10 28.42569 03 14 42.69 +29 03 38.8 20.7 V G96 – Mt. Lemmon Survey MPS 542333
2014 10 28.42837 03 14 42.52 +29 03 38.5 20.5 V G96 – Mt. Lemmon Survey MPS 542333
2014 10 28.43104 03 14 42.33 +29 03 37.9 21.2 V G96 – Mt. Lemmon Survey MPS 542333
2014 11 24.20673 02 45 33.46 +26 58 03.0 20.7 V G96 – Mt. Lemmon Survey MPS 547790
2014 11 24.21335 02 45 33.07 +26 57 59.0 21.4 V G96 – Mt. Lemmon Survey MPS 547790
2014 11 24.21996 02 45 32.68 +26 57 57.4 21.1 V G96 – Mt. Lemmon Survey MPS 547790
2014 11 24.22658 02 45 32.24 +26 57 55.4 21.1 V G96 – Mt. Lemmon Survey MPS 547790
2014 11 27.40728 02 42 31.102 +26 37 14.91 21.4 w F51 – Pan-STARRS 1, Haleakala MPS 549762
2014 11 27.41954 02 42 30.413 +26 37 09.95 21.1 w F51 – Pan-STARRS 1, Haleakala MPS 549762
2014 11 27.43180 02 42 29.709 +26 37 05.37 21.3 w F51 – Pan-STARRS 1, Haleakala MPS 549762
2014 11 27.44407 02 42 29.013 +26 37 00.21 21.3 w F51 – Pan-STARRS 1, Haleakala MPS 549762
2016 03 03.45958 12 56 00.408 -15 45 47.20 20.9 w F51 – Pan-STARRS 1, Haleakala MPS 686750
2016 03 03.47071 12 56 00.041 -15 45 48.88 20.9 w F51 – Pan-STARRS 1, Haleakala MPS 686750
2016 03 03.48180 12 55 59.668 -15 45 50.35 20.9 w F51 – Pan-STARRS 1, Haleakala MPS 686750
2016 03 03.49298 12 55 59.285 -15 45 52.09 20.8 w F51 – Pan-STARRS 1, Haleakala MPS 686750
2016 03 28.35994 12 35 29.44 -15 30 59.6 20.7 V W84 – Cerro Tololo-DECam MPS 804885
2016 03 28.36313 12 35 29.24 -15 30 58.9   W84 – Cerro Tololo-DECam MPS 804885
2016 03 28.36634 12 35 29.05 -15 30 58.2   W84 – Cerro Tololo-DECam MPS 804885
2016 03 28.36953 12 35 28.85 -15 30 57.6   W84 – Cerro Tololo-DECam MPS 804885
2016 03 28.37270 12 35 28.65 -15 30 56.9   W84 – Cerro Tololo-DECam MPS 804885
2016 03 29.32826 12 34 30.53 -15 27 36.9 20.7 V W84 – Cerro Tololo-DECam MPS 804885
2016 03 29.33143 12 34 30.34 -15 27 36.1   W84 – Cerro Tololo-DECam MPS 804885
2016 03 29.33463 12 34 30.13 -15 27 35.4   W84 – Cerro Tololo-DECam MPS 804885
2016 03 29.33780 12 34 29.93 -15 27 34.8   W84 – Cerro Tololo-DECam MPS 804885
2016 03 29.34096 12 34 29.73 -15 27 34.0   W84 – Cerro Tololo-DECam MPS 804885
2016 04 01.35580 12 31 25.48 -15 15 55.0 20.6 V W84 – Cerro Tololo-DECam MPS 804885
2016 04 01.35896 12 31 25.28 -15 15 54.2   W84 – Cerro Tololo-DECam MPS 804885
2016 04 01.36214 12 31 25.08 -15 15 53.3   W84 – Cerro Tololo-DECam MPS 804885
2016 04 01.36530 12 31 24.88 -15 15 52.6   W84 – Cerro Tololo-DECam MPS 804885
2016 04 01.36848 12 31 24.68 -15 15 51.8   W84 – Cerro Tololo-DECam MPS 804885
2016 04 02.26230 12 30 30.65 -15 12 14.7 20.8 r G45 – Space Surveillance Telescope, Atom Site MPS 698798
2016 04 02.26696 12 30 30.29 -15 12 13.4 20.5 r G45 – Space Surveillance Telescope, Atom Site MPS 698798
2016 04 02.38258 12 30 22.90 -15 11 42.9 19.9 r G45 – Space Surveillance Telescope, Atom Site MPS 698798
2016 04 02.38783 12 30 22.69 -15 11 42.0 19.7 r G45 – Space Surveillance Telescope, Atom Site MPS 698798
2017 08 16.42362 23 33 53.957 +03 40 46.16 21.3 w F51 – Pan-STARRS 1, Haleakala MPS 812028
2017 08 16.43504 23 33 53.476 +03 40 45.90 21.2 w F51 – Pan-STARRS 1, Haleakala MPS 812028
2017 08 16.44650 23 33 52.976 +03 40 46.00 21.5 w F51 – Pan-STARRS 1, Haleakala MPS 812028
2017 08 16.45793 23 33 52.487 +03 40 45.78 21.2 w F51 – Pan-STARRS 1, Haleakala MPS 812028
2017 09 16.40872 23 05 27.268 +02 19 38.83 20.9 w F51 – Pan-STARRS 1, Haleakala MPS 818949
2017 09 16.41949 23 05 26.605 +02 19 35.92 21.0 w F51 – Pan-STARRS 1, Haleakala MPS 818949
2017 09 16.43122 23 05 25.893 +02 19 32.94 20.8 w F51 – Pan-STARRS 1, Haleakala MPS 818949
2017 09 16.44192 23 05 25.242 +02 19 30.01 20.9 w F51 – Pan-STARRS 1, Haleakala MPS 818949
2017 09 24.32583 22 58 04.143 +01 44 21.29 21.1 w F51 – Pan-STARRS 1, Haleakala MPS 823295
2017 09 24.33845 22 58 03.450 +01 44 17.84 21.0 w F51 – Pan-STARRS 1, Haleakala MPS 823295
2017 09 24.35107 22 58 02.765 +01 44 14.36 21.0 w F51 – Pan-STARRS 1, Haleakala MPS 823295
2017 09 24.36373 22 58 02.074 +01 44 11.01 21.0 w F51 – Pan-STARRS 1, Haleakala MPS 823295
2017 09 28.25501 22 54 46.52 +01 26 50.1 20.6 V G96 – Mt. Lemmon Survey MPS 823295
2017 09 28.26072 22 54 46.25 +01 26 48.6 21.2 V G96 – Mt. Lemmon Survey MPS 823295
2017 09 28.26642 22 54 45.97 +01 26 47.4 21.3 V G96 – Mt. Lemmon Survey MPS 823295
2017 09 28.28007 22 54 45.30 +01 26 43.9 21.2 V G96 – Mt. Lemmon Survey MPS 823295
2017 10 16.16760 22 44 28.10 +00 19 27.9 21.6 G G96 – Mt. Lemmon Survey MPS 871484
2017 10 16.17279 22 44 27.95 +00 19 27.6 21.2 G G96 – Mt. Lemmon Survey MPS 871484
2017 10 16.17798 22 44 27.86 +00 19 26.0 21.3 G G96 – Mt. Lemmon Survey MPS 871484
2017 10 16.18317 22 44 27.75 +00 19 24.5 21.2 G G96 – Mt. Lemmon Survey MPS 871484
2018 12 12.61501 08 26 03.818 +23 04 23.72 21.4 w F51 – Pan-STARRS 1, Haleakala MPS 966920
2018 12 12.61630 08 26 03.787 +23 04 23.76 21.5 w F51 – Pan-STARRS 1, Haleakala MPS 966920
2018 12 12.62571 08 26 03.562 +23 04 23.53 21.5 w F51 – Pan-STARRS 1, Haleakala MPS 966920
2018 12 12.62700 08 26 03.535 +23 04 23.74 21.3 w F51 – Pan-STARRS 1, Haleakala MPS 966920
2018 12 12.63642 08 26 03.303 +23 04 23.38 21.6 w F51 – Pan-STARRS 1, Haleakala MPS 966920
2018 12 12.63771 08 26 03.291 +23 04 23.32 21.4 w F51 – Pan-STARRS 1, Haleakala MPS 966920
2018 12 12.64710 08 26 03.074 +23 04 23.01 21.5 w F51 – Pan-STARRS 1, Haleakala MPS 966920
2018 12 12.64840 08 26 03.040 +23 04 23.20 21.5 w F51 – Pan-STARRS 1, Haleakala MPS 966920
2018 12 31.52304 08 13 24.28 +23 09 09.4 21.2 G G96 – Mt. Lemmon Survey MPS 966920
2018 12 31.52734 08 13 24.02 +23 09 09.5 21.3 G G96 – Mt. Lemmon Survey MPS 966920
2018 12 31.53181 08 13 23.72 +23 09 09.5 20.7 G G96 – Mt. Lemmon Survey MPS 966920
2018 12 31.53604 08 13 23.47 +23 09 09.2 21.3 G G96 – Mt. Lemmon Survey MPS 966920
2019 01 08.35405 08 05 10.82 +23 12 57.8   G96 – Mt. Lemmon Survey MPS 966920
2019 01 08.35912 08 05 10.46 +23 12 57.4 20.7 G G96 – Mt. Lemmon Survey MPS 966920
2019 01 08.36420 08 05 10.11 +23 12 57.5 20.7 G G96 – Mt. Lemmon Survey MPS 966920
2019 01 08.36931 08 05 09.74 +23 12 57.7 20.7 G G96 – Mt. Lemmon Survey MPS 966920
2019 01 10.35688 08 02 53.864 +23 13 41.12 20.5 w F51 – Pan-STARRS 1, Haleakala MPS 1371707
2019 01 10.38052 08 02 52.162 +23 13 41.73 20.7 w F51 – Pan-STARRS 1, Haleakala MPS 1371707
